Skip Page Navigation
NASA JPL Caltech
NASA Logo - Jet Propulsion Laboratory + View the NASA Portal
+ Center for Near-Earth Object Studies
JPL Home Earth Solar System Stars & Galaxies Technology
JPL Solar System Dynamics
BODIES ORBITS EPHEMERIDES TOOLS PHYSICAL DATA DISCOVERY FAQ SITE MAP
JPL Small-Body Database Browser
Search: [ help ]  
410608 (2008 KH25)
Classification: Main-belt Asteroid          SPK-ID: 2410608
Ephemeris | Orbit Diagram | Orbital Elements | Mission Design | Physical Parameters | Discovery Circumstances ]

[ show orbit diagram ]
Orbital Elements at Epoch 2459000.5 (2020-May-31.0) TDB
Reference: JPL 9 (heliocentric ecliptic J2000)
 Element Value Uncertainty (1-sigma)   Units 
e .08047149969630515 7.5425e-08  
a 2.759220185040265 3.6373e-08 au
q 2.537181598757758 2.0818e-07 au
i 5.421217863735763 8.6624e-06 deg
node 164.5579871125271 8.3643e-05 deg
peri 119.7699034601098 9.7445e-05 deg
M 178.6826900588034 5.3043e-05 deg
tp 2458169.582423206650
(2018-Feb-20.08242321)
0.00024208 TDB
period 1674.086771064192
4.58
3.3103e-05
9.063e-08
d
yr
n .2150426168000559 4.2521e-09 deg/d
Q 2.981258771322772 3.93e-08 au
  Orbit Determination Parameters
   # obs. used (total)      82  
   data-arc span      7018 days (19.21 yr)  
   first obs. used      2000-10-02  
   last obs. used      2019-12-20  
   planetary ephem.      DE431  
   SB-pert. ephem.      SB431-N16  
   condition code      0  
   norm. resid. RMS      .69815  
   source      ORB  
   producer      Otto Matic  
   solution date      2020-Nov-12 13:50:57  

Additional Information
 Earth MOID = 1.52635 au 
 Jupiter MOID = 2.13791 au 
 T_jup = 3.331 
[ show covariance matrix ]

Ephemeris | Orbit Diagram | Orbital Elements | Mission Design | Physical Parameters | Discovery Circumstances ]

Physical Parameter Table
Parameter Symbol Value Units Sigma Reference Notes
absolute magnitude H 17.2   n/a MPO455919  

410608 (2008 KH25)          Discovered 2008-May-14 by Mt. Lemmon Survey at Mount Lemmon
Reference: Last Updated: 2014-10-09
Ephemeris | Orbit Diagram | Orbital Elements | Mission Design | Physical Parameters | Discovery Circumstances ]
ABOUT SSD CREDITS/AWARDS PRIVACY/COPYRIGHT GLOSSARY LINKS
FirstGov 2021-Jan-23 21:50 UT
(server date/time)  
NASA Home Page
Site Manager:   Ryan S. Park
Webmaster  Alan B. Chamberlin